Time,TemperatureF,DewpointF,PressureIn,WindDirection,WindDirectionDegrees,WindSpeedMPH,WindSpeedGustMPH,Humidity,HourlyPrecipIn,Conditions,Clouds,dailyrainin,SoftwareType,DateUTC
2013-06-26 00:03:00,73.5,72.3,29.65,North,-999,0.0,0.0,96,0.00,,,-99.99,WeatherLink 5.7,2013-06-26 05:03:00,
2013-06-26 00:18:00,73.2,72.0,29.64,North,-999,0.0,0.0,96,0.00,,,-99.99,WeatherLink 5.7,2013-06-26 05:18:00,
2013-06-26 00:33:00,73.0,71.8,29.64,North,-999,0.0,0.0,96,0.00,,,-99.99,WeatherLink 5.7,2013-06-26 05:33:00,
2013-06-26 00:48:00,72.5,71.3,29.65,North,-999,0.0,0.0,96,0.00,,,-99.99,WeatherLink 5.7,2013-06-26 05:48:00,
2013-06-26 01:03:00,72.7,71.8,29.64,North,-999,0.0,0.0,97,0.00,,,-99.99,WeatherLink 5.7,2013-06-26 06:03:00,
2013-06-26 01:18:00,73.2,72.3,29.64,West,270,0.0,2.0,97,0.00,,,-99.99,WeatherLink 5.7,2013-06-26 06:18:00,
2013-06-26 01:33:00,73.0,72.1,29.64,WSW,247,0.0,2.0,97,0.00,,,-99.99,WeatherLink 5.7,2013-06-26 06:33:00,
2013-06-26 01:48:00,72.3,71.4,29.63,WSW,247,0.0,2.0,97,0.00,,,-99.99,WeatherLink 5.7,2013-06-26 06:48:00,
2013-06-26 02:03:00,72.1,71.2,29.62,WSW,247,0.0,2.0,97,0.00,,,-99.99,WeatherLink 5.7,2013-06-26 07:03:00,
2013-06-26 02:18:00,71.8,70.9,29.61,North,-999,0.0,0.0,97,0.00,,,-99.99,WeatherLink 5.7,2013-06-26 07:18:00,
2013-06-26 02:33:00,70.9,69.7,29.62,SSE,157,0.0,2.0,96,0.00,,,-99.99,WeatherLink 5.7,2013-06-26 07:33:00,
2013-06-26 02:48:00,71.1,70.2,29.60,SSE,157,0.0,3.0,97,0.00,,,-99.99,WeatherLink 5.7,2013-06-26 07:48:00,
2013-06-26 03:00:00,70.9,70.0,29.58,ESE,112,0.0,1.0,97,0.00,,,-99.99,WeatherLink 5.7,2013-06-26 08:00:00,
2013-06-26 03:18:00,70.9,70.0,29.61,ESE,112,0.0,2.0,97,0.00,,,-99.99,WeatherLink 5.7,2013-06-26 08:18:00,
2013-06-26 03:33:00,70.9,70.0,29.59,North,-999,0.0,0.0,97,0.00,,,-99.99,WeatherLink 5.7,2013-06-26 08:33:00,
2013-06-26 03:48:00,70.9,70.0,29.60,ESE,112,0.0,1.0,97,0.00,,,-99.99,WeatherLink 5.7,2013-06-26 08:48:00,
2013-06-26 04:03:00,70.8,69.9,29.60,ESE,112,1.0,5.0,97,0.00,,,-99.99,WeatherLink 5.7,2013-06-26 09:03:00,
2013-06-26 04:18:00,70.3,69.4,29.61,SE,135,2.0,7.0,97,0.00,,,-99.99,WeatherLink 5.7,2013-06-26 09:18:00,
2013-06-26 04:33:00,68.9,66.2,29.61,ESE,112,5.0,16.0,91,0.00,,,-99.99,WeatherLink 5.7,2013-06-26 09:33:00,
2013-06-26 04:48:00,68.8,64.8,29.61,ESE,112,2.0,18.0,87,0.00,,,-99.99,WeatherLink 5.7,2013-06-26 09:48:00,
2013-06-26 05:03:00,68.6,64.6,29.60,ESE,112,0.0,5.0,87,0.00,,,-99.99,WeatherLink 5.7,2013-06-26 10:03:00,
2013-06-26 05:18:00,68.6,64.9,29.59,ESE,112,0.0,1.0,88,0.00,,,-99.99,WeatherLink 5.7,2013-06-26 10:18:00,
2013-06-26 05:33:00,68.4,64.7,29.59,ESE,112,0.0,2.0,88,0.00,,,-99.99,WeatherLink 5.7,2013-06-26 10:33:00,
2013-06-26 05:48:00,68.4,65.0,29.59,ESE,112,0.0,2.0,89,0.03,,,-99.99,WeatherLink 5.7,2013-06-26 10:48:00,
2013-06-26 06:03:00,68.3,65.6,29.59,North,-999,0.0,0.0,91,0.03,,,-99.99,WeatherLink 5.7,2013-06-26 11:03:00,
2013-06-26 06:18:00,67.8,65.4,29.61,ESE,112,0.0,1.0,92,0.03,,,-99.99,WeatherLink 5.7,2013-06-26 11:18:00,
2013-06-26 06:33:00,67.8,65.7,29.61,North,-999,0.0,0.0,93,0.03,,,-99.99,WeatherLink 5.7,2013-06-26 11:33:00,
2013-06-26 06:48:00,68.3,66.5,29.62,North,-999,0.0,0.0,94,0.00,,,-99.99,WeatherLink 5.7,2013-06-26 11:48:00,
2013-06-26 07:03:00,68.6,66.8,29.62,North,-999,0.0,0.0,94,0.00,,,-99.99,WeatherLink 5.7,2013-06-26 12:03:00,
2013-06-26 07:19:00,68.6,67.1,29.64,NNE,22,0.0,2.0,95,0.00,,,-99.99,WeatherLink 5.7,2013-06-26 12:19:00,
2013-06-26 07:33:00,68.3,66.8,29.65,NNE,22,0.0,6.0,95,0.00,,,-99.99,WeatherLink 5.7,2013-06-26 12:33:00,
2013-06-26 07:48:00,68.1,66.6,29.66,NW,315,0.0,5.0,95,0.00,,,-99.99,WeatherLink 5.7,2013-06-26 12:48:00,
2013-06-26 08:03:00,67.9,66.4,29.66,NE,45,0.0,8.0,95,0.00,,,-99.99,WeatherLink 5.7,2013-06-26 13:03:00,
2013-06-26 08:18:00,67.8,66.3,29.65,NE,45,0.0,5.0,95,0.00,,,-99.99,WeatherLink 5.7,2013-06-26 13:18:00,
2013-06-26 08:33:00,67.8,66.3,29.64,North,0,0.0,5.0,95,0.00,,,-99.99,WeatherLink 5.7,2013-06-26 13:33:00,
2013-06-26 08:48:00,67.8,66.3,29.64,South,180,0.0,7.0,95,0.00,,,-99.99,WeatherLink 5.7,2013-06-26 13:48:00,
2013-06-26 09:03:00,67.9,66.7,29.63,SE,135,1.0,6.0,96,0.00,,,-99.99,WeatherLink 5.7,2013-06-26 14:03:00,
2013-06-26 09:18:00,68.8,67.6,29.61,ESE,112,1.0,6.0,96,0.00,,,-99.99,WeatherLink 5.7,2013-06-26 14:18:00,
2013-06-26 09:33:00,69.6,68.4,29.61,ESE,112,2.0,11.0,96,0.00,,,-99.99,WeatherLink 5.7,2013-06-26 14:33:00,
2013-06-26 09:48:00,70.3,68.8,29.61,ESE,112,3.0,14.0,95,0.00,,,-99.99,WeatherLink 5.7,2013-06-26 14:48:00,
2013-06-26 10:03:00,70.9,69.1,29.62,ESE,112,1.0,9.0,94,0.00,,,-99.99,WeatherLink 5.7,2013-06-26 15:03:00,
2013-06-26 10:18:00,70.9,68.5,29.61,SE,135,1.0,10.0,92,0.00,,,-99.99,WeatherLink 5.7,2013-06-26 15:18:00,
2013-06-26 10:33:00,70.6,67.8,29.61,SE,135,3.0,10.0,91,0.00,,,-99.99,WeatherLink 5.7,2013-06-26 15:33:00,
2013-06-26 10:48:00,70.3,67.5,29.63,SE,135,2.0,9.0,91,0.00,,,-99.99,WeatherLink 5.7,2013-06-26 15:48:00,
2013-06-26 11:03:00,70.4,67.3,29.64,SE,135,3.0,11.0,90,0.00,,,-99.99,WeatherLink 5.7,2013-06-26 16:03:00,
2013-06-26 11:18:00,69.9,65.9,29.64,SE,135,4.0,13.0,87,0.00,,,-99.99,WeatherLink 5.7,2013-06-26 16:18:00,
2013-06-26 11:33:00,70.4,66.0,29.64,SE,135,2.0,12.0,86,0.00,,,-99.99,WeatherLink 5.7,2013-06-26 16:33:00,
2013-06-26 11:48:00,70.6,65.2,29.63,SE,135,4.0,13.0,83,0.00,,,-99.99,WeatherLink 5.7,2013-06-26 16:48:00,
2013-06-26 12:03:00,71.5,65.7,29.62,SSE,157,2.0,11.0,82,0.00,,,-99.99,WeatherLink 5.7,2013-06-26 17:03:00,
2013-06-26 12:18:00,71.8,66.4,29.61,SE,135,3.0,14.0,83,0.00,,,-99.99,WeatherLink 5.7,2013-06-26 17:18:00,
2013-06-26 12:33:00,73.0,67.5,29.61,SE,135,2.0,13.0,83,0.00,,,-99.99,WeatherLink 5.7,2013-06-26 17:33:00,
2013-06-26 12:48:00,73.0,67.2,29.61,SE,135,1.0,9.0,82,0.00,,,-99.99,WeatherLink 5.7,2013-06-26 17:48:00,
2013-06-26 13:03:00,74.6,68.0,29.60,SE,135,1.0,8.0,80,0.00,,,-99.99,WeatherLink 5.7,2013-06-26 18:03:00,
2013-06-26 13:18:00,74.6,67.7,29.61,SE,135,1.0,6.0,79,0.00,,,-99.99,WeatherLink 5.7,2013-06-26 18:18:00,
2013-06-26 13:33:00,75.3,68.3,29.61,ESE,112,0.0,5.0,79,0.00,,,-99.99,WeatherLink 5.7,2013-06-26 18:33:00,
2013-06-26 13:48:00,74.9,67.9,29.61,SE,135,0.0,5.0,79,0.00,,,-99.99,WeatherLink 5.7,2013-06-26 18:48:00,
2013-06-26 14:03:00,74.9,67.9,29.62,SE,135,0.0,4.0,79,0.00,,,-99.99,WeatherLink 5.7,2013-06-26 19:03:00,
2013-06-26 14:18:00,74.6,67.7,29.62,West,270,1.0,7.0,79,0.00,,,-99.99,WeatherLink 5.7,2013-06-26 19:18:00,
2013-06-26 14:33:00,75.1,68.5,29.61,West,270,0.0,5.0,80,0.00,,,-99.99,WeatherLink 5.7,2013-06-26 19:33:00,
2013-06-26 14:48:00,75.6,68.6,29.61,West,270,3.0,11.0,79,0.00,,,-99.99,WeatherLink 5.7,2013-06-26 19:48:00,
2013-06-26 15:03:00,77.2,69.4,29.61,West,270,0.0,4.0,77,0.00,,,-99.99,WeatherLink 5.7,2013-06-26 20:03:00,
2013-06-26 15:18:00,78.5,69.1,29.60,WNW,292,0.0,1.0,73,0.00,,,-99.99,WeatherLink 5.7,2013-06-26 20:18:00,
2013-06-26 15:33:00,77.9,69.3,29.60,West,270,1.0,5.0,75,0.00,,,-99.99,WeatherLink 5.7,2013-06-26 20:33:00,
2013-06-26 15:48:00,78.5,69.1,29.60,West,270,1.0,7.0,73,0.00,,,-99.99,WeatherLink 5.7,2013-06-26 20:48:00,
2013-06-26 16:04:00,79.0,70.0,29.60,NNW,337,0.0,5.0,74,0.00,,,-99.99,WeatherLink 5.7,2013-06-26 21:04:00,
2013-06-26 16:18:00,79.4,69.6,29.60,NNW,337,0.0,4.0,72,0.00,,,-99.99,WeatherLink 5.7,2013-06-26 21:18:00,
2013-06-26 16:33:00,79.8,70.4,29.60,NNW,337,0.0,4.0,73,0.00,,,-99.99,WeatherLink 5.7,2013-06-26 21:33:00,
2013-06-26 16:48:00,81.1,70.4,29.60,North,0,0.0,2.0,70,0.00,,,-99.99,WeatherLink 5.7,2013-06-26 21:48:00,
2013-06-26 17:03:00,80.9,70.2,29.60,NW,315,0.0,4.0,70,0.00,,,-99.99,WeatherLink 5.7,2013-06-26 22:03:00,
2013-06-26 17:18:00,82.4,69.9,29.60,NW,315,0.0,4.0,66,0.00,,,-99.99,WeatherLink 5.7,2013-06-26 22:18:00,
2013-06-26 17:33:00,82.8,69.8,29.59,WNW,292,0.0,1.0,65,0.00,,,-99.99,WeatherLink 5.7,2013-06-26 22:33:00,
2013-06-26 17:48:00,83.4,70.4,29.59,WNW,292,0.0,2.0,65,0.00,,,-99.99,WeatherLink 5.7,2013-06-26 22:48:00,
2013-06-26 18:03:00,83.8,70.8,29.57,NW,315,0.0,2.0,65,0.00,,,-99.99,WeatherLink 5.7,2013-06-26 23:03:00,
2013-06-26 18:18:00,84.1,70.1,29.57,North,-999,0.0,0.0,63,0.00,,,-99.99,WeatherLink 5.7,2013-06-26 23:18:00,
2013-06-26 18:33:00,83.6,70.6,29.57,NW,315,0.0,1.0,65,0.00,,,-99.99,WeatherLink 5.7,2013-06-26 23:33:00,
2013-06-26 18:48:00,83.0,70.0,29.58,WNW,292,0.0,3.0,65,0.00,,,-99.99,WeatherLink 5.7,2013-06-26 23:48:00,
2013-06-26 19:03:00,82.2,70.6,29.59,North,-999,0.0,0.0,68,0.00,,,-99.99,WeatherLink 5.7,2013-06-27 00:03:00,
2013-06-26 19:18:00,81.2,70.5,29.59,North,-999,0.0,0.0,70,0.00,,,-99.99,WeatherLink 5.7,2013-06-27 00:18:00,
2013-06-26 19:33:00,79.9,70.9,29.59,North,-999,0.0,0.0,74,0.00,,,-99.99,WeatherLink 5.7,2013-06-27 00:33:00,
2013-06-26 19:48:00,78.5,70.7,29.59,North,-999,0.0,0.0,77,0.00,,,-99.99,WeatherLink 5.7,2013-06-27 00:48:00,
2013-06-26 20:03:00,77.9,70.9,29.59,North,-999,0.0,0.0,79,0.00,,,-99.99,WeatherLink 5.7,2013-06-27 01:03:00,
2013-06-26 20:18:00,77.0,70.4,29.59,North,-999,0.0,0.0,80,0.00,,,-99.99,WeatherLink 5.7,2013-06-27 01:18:00,
2013-06-26 20:33:00,76.3,70.4,29.59,North,-999,0.0,0.0,82,0.00,,,-99.99,WeatherLink 5.7,2013-06-27 01:33:00,
2013-06-26 20:48:00,75.4,70.2,29.58,North,-999,0.0,0.0,84,0.00,,,-99.99,WeatherLink 5.7,2013-06-27 01:48:00,
2013-06-26 21:03:00,74.6,70.1,29.60,North,-999,0.0,0.0,86,0.00,,,-99.99,WeatherLink 5.7,2013-06-27 02:03:00,
2013-06-26 21:18:00,73.9,69.8,29.61,North,-999,0.0,0.0,87,0.00,,,-99.99,WeatherLink 5.7,2013-06-27 02:18:00,
2013-06-26 21:34:00,73.2,69.4,29.61,North,-999,0.0,0.0,88,0.00,,,-99.99,WeatherLink 5.7,2013-06-27 02:34:00,
2013-06-26 21:48:00,72.5,69.1,29.61,North,-999,0.0,0.0,89,0.00,,,-99.99,WeatherLink 5.7,2013-06-27 02:48:00,
2013-06-26 22:03:00,72.3,69.2,29.62,North,-999,0.0,0.0,90,0.00,,,-99.99,WeatherLink 5.7,2013-06-27 03:03:00,
2013-06-26 22:18:00,72.0,69.2,29.63,North,-999,0.0,0.0,91,0.00,,,-99.99,WeatherLink 5.7,2013-06-27 03:18:00,
2013-06-26 22:33:00,71.8,69.0,29.63,North,-999,0.0,0.0,91,0.00,,,-99.99,WeatherLink 5.7,2013-06-27 03:33:00,
2013-06-26 22:48:00,71.6,69.2,29.63,North,-999,0.0,0.0,92,0.00,,,-99.99,WeatherLink 5.7,2013-06-27 03:48:00,
2013-06-26 23:03:00,71.6,69.2,29.64,North,-999,0.0,0.0,92,0.00,,,-99.99,WeatherLink 5.7,2013-06-27 04:03:00,
2013-06-26 23:18:00,71.8,69.7,29.64,North,-999,0.0,0.0,93,0.00,,,-99.99,WeatherLink 5.7,2013-06-27 04:18:00,
2013-06-26 23:33:00,72.0,69.9,29.63,North,-999,0.0,0.0,93,0.00,,,-99.99,WeatherLink 5.7,2013-06-27 04:33:00,
2013-06-26 23:48:00,71.5,69.4,29.63,North,-999,0.0,0.0,93,0.00,,,-99.99,WeatherLink 5.7,2013-06-27 04:48:00,